[[{"header":{"parameterUnit":"m.s-1","parameterCategory":1,"la1":30.2991,"la2":30.254,"lo1":-89.0895,"lo2":-89.0444,"dy":0.0017,"dx":0.0017,"nx":28,"ny":28,"refTime":"2025-12-04T03:00:00:Z","depth":0,"parameterNumber":2,"parameterNumberName":"U-component_of_WINDS"},"data":[0,0,0,0,0,0,0,0,0,0,0,0,0,0,0,0,0,0,0,0,0,0,0,0,0,0,0,0,0,0,0,0,0,0,0,0,0,0,0,0,0,0,0,0,0,0,0,0,0,0,0,0,0,0,0,0,0,0,0.5692,0.5691,0,0.5655,0.5655,0.5654,0.5633,0.5633,0.5633,0.5633,0.5593,0.5592,0.5591,0,0,0,0,0,0,0,0,0,0,0,0,0,0.5742,0.5741,0.5692,0.5691,0.5691,0.5655,0.5655,0.5654,0.5633,0.5633,0.5633,0.5633,0.5593,0.5592,0.5591,0,0,0,0,0,0,0,0,0,0,0,0,0,0.5714,0.5741,0.5692,0.5676,0.5674,0.5655,0.5655,0.5654,0.5633,0.5633,0.5633,0.5633,0.5594,0.5592,0.5591,0.5584,0,0,0.5586,0.5586,0,0,0,0,0,0,0,0,0.5716,0.5712,0.5679,0.5677,0.5675,0.5648,0.5658,0.563,0.5633,0.5648,0.5633,0.5632,0.5611,0.5608,0.5602,0.5582,0.558,0.5586,0.5585,0.5584,0.5584,0,0,0,0,0,0,0,0.5718,0.5714,0.5677,0.5678,0.5676,0.567,0.5666,0.5653,0.5631,0.5647,0.5645,0.5642,0.561,0.5603,0.5601,0.558,0.5586,0.5585,0.5584,0.5583,0.5554,0.5554,0,0,0,0,0,0,0.5723,0.5716,0.5678,0.5676,0.5696,0.567,0.5665,0.5657,0.5631,0.5627,0.5642,0.5641,0.5606,0.5602,0.5599,0.559,0.5584,0.5583,0.5582,0.5554,0.5554,0.5554,0,0,0,0,0,0,0.5724,0.5719,0.568,0.5695,0.569,0.5669,0.566,0.5656,0.5649,0.5627,0.5623,0.5639,0.5605,0.5601,0.5588,0.5588,0.5582,0.5581,0.5554,0.5554,0.5554,0.5572,0,0,0,0,0,0,0.5725,0.572,0.5717,0.5696,0.5689,0.567,0.566,0.5656,0.5647,0.5645,0.5623,0.5619,0.5605,0.5591,0.5587,0.5586,0.558,0.5554,0.5554,0.5554,0.5571,0.5572,0.5574,0,0,0,0,0,0.5727,0.5723,0.5717,0.5713,0.5686,0.567,0.5666,0.5651,0.5647,0.5644,0.563,0.562,0.5589,0.5589,0.5585,0.5584,0.5554,0.5554,0.5554,0.557,0.5572,0.5574,0,0,0,0,0,0,0.5744,0.572,0.5713,0.5702,0.5688,0.5666,0.5662,0.5653,0.564,0.5638,0.5619,0.5615,0.5604,0.5592,0.5593,0.5577,0.557,0.557,0.5584,0.5586,0.5587,0.559,0.5579,0,0,0,0,0,0.5747,0.5737,0.5716,0.5708,0.5702,0.5683,0.5676,0.5665,0.565,0.5644,0.5629,0.5614,0.5601,0.5593,0.558,0.557,0.5564,0.5567,0.5568,0.5569,0.5569,0.5563,0.5564,0.5555,0.5555,0.5555,0,0,0.5752,0.5737,0.5732,0.5711,0.5699,0.5689,0.5678,0.5667,0.566,0.5642,0.5629,0.5618,0.56,0.5589,0.5583,0.5579,0.5571,0.557,0.5571,0.5569,0.5564,0.5565,0.5565,0.5555,0.5555,0.5555,0,0,0.5755,0.5743,0.5736,0.5725,0.5708,0.5696,0.5694,0.5674,0.5666,0.5653,0.564,0.563,0.5608,0.5596,0.5587,0.5589,0.5579,0.5585,0.5592,0.5587,0.5587,0.5588,0.5588,0.5589,0.5585,0.5585,0.5585,0,0.5763,0.5748,0.5733,0.5723,0.5715,0.57,0.5692,0.5682,0.5661,0.5655,0.5652,0.5625,0.5612,0.5598,0.5598,0.5592,0.5589,0.5587,0.5589,0.5589,0.5589,0.559,0.559,0.5586,0.5586,0.5585,0.5585,0,0.5758,0.5748,0.5744,0.5726,0.5717,0.5708,0.5692,0.5684,0.5675,0.5664,0.5652,0.5636,0.562,0.5616,0.5606,0.5601,0.5599,0.5592,0.5585,0.5591,0.5591,0.5591,0.5587,0.5587,0.5586,0.5586,0,0,0.577,0.5745,0.5744,0.5736,0.5716,0.5708,0.5699,0.5684,0.5678,0.5665,0.5657,0.564,0.5634,0.5624,0.5613,0.5609,0.5611,0.5602,0.5602,0.5605,0.5605,0.561,0.561,0.5605,0.5605,0.5605,0.5606,0,0.5771,0.5755,0.5742,0.573,0.5721,0.5707,0.57,0.5687,0.5676,0.5667,0.5655,0.5643,0.5636,0.563,0.5625,0.5612,0.5611,0.5612,0.5597,0.5597,0.5601,0.561,0.5615,0.5617,0.5606,0.5606,0.5606,0,0.5769,0.5758,0.5745,0.5728,0.5724,0.5717,0.5703,0.5694,0.568,0.5672,0.5662,0.5651,0.5641,0.5637,0.5623,0.5623,0.5617,0.561,0.5609,0.5607,0.5601,0.5607,0.5617,0.5617,0.5606,0.5606,0.5606,0,0.5779,0.576,0.5751,0.5744,0.5724,0.572,0.5711,0.5697,0.5689,0.5677,0.5672,0.5658,0.5651,0.5641,0.5627,0.5624,0.5614,0.5608,0.5608,0.5608,0.5605,0.5606,0.5614,0.5602,0.5602,0.5602,0.5602,0,0.5781,0.5774,0.5755,0.5749,0.5741,0.5727,0.572,0.571,0.5697,0.5689,0.5677,0.5669,0.5651,0.5642,0.5631,0.5621,0.5618,0.5612,0.5609,0.5612,0.5613,0.5607,0.5607,0.5602,0.5602,0.5602,0.5602,0,0.579,0.5777,0.5766,0.5749,0.5744,0.5739,0.5724,0.5718,0.5707,0.5697,0.5694,0.5677,0.5666,0.5651,0.5634,0.5627,0.5619,0.5614,0.5624,0.5622,0.5622,0.5623,0.5626,0.5626,0.5615,0.5615,0.5616,0,0.5792,0.5787,0.5769,0.5763,0.5755,0.5746,0.5738,0.5724,0.5717,0.5701,0.5697,0.5685,0.5674,0.5656,0.5642,0.5629,0.5625,0.5627,0.5622,0.5627,0.5624,0.5625,0.5624,0.5628,0.5628,0.5628,0.5628,0,0.5797,0.5791,0.5781,0.5769,0.5761,0.5751,0.574,0.5736,0.572,0.5713,0.5701,0.5693,0.5677,0.5665,0.5651,0.5641,0.5632,0.563,0.5629,0.5633,0.5638,0.5635,0.5626,0.563,0.563,0.5629,0.5629,0.5629,0.5802,0.5797,0.5784,0.5774,0.5765,0.5755,0.5749,0.5738,0.5729,0.5715,0.5707,0.5696,0.5683,0.5663,0.5655,0.5646,0.5642,0.5641,0.5641,0.564,0.5642,0.5641,0.5643,0.5643,0.5643,0.5643,0.5643,0,0.5806,0.5797,0.5788,0.5774,0.5766,0.576,0.5748,0.5742,0.5732,0.5721,0.5711,0.5698,0.5687,0.5673,0.5661,0.5656,0.5652,0.5653,0.5653,0.5651,0.5645,0.5647,0.5657,0.5657,0.5657,0.5657,0.5657,0.5657,0.5807,0.5798,0.5791,0.5778,0.5769,0.5759,0.5753,0.5744,0.5735,0.5722,0.5713,0.5704,0.5692,0.5679,0.5668,0.5664,0.566,0.5663,0.5658,0.5653,0.5651,0.565,0.5652,0.5663,0.5663,0.5665,0.5665,0.5665]},{"header":{"parameterUnit":"m.s-1","parameterCategory":1,"la1":30.2991,"la2":30.254,"lo1":-89.0895,"lo2":-89.0444,"dy":0.0017,"dx":0.0017,"nx":28,"ny":28,"refTime":"2025-12-04T03:00:00:Z","depth":0,"parameterNumber":3,"parameterNumberName":"V-component_of_WINDS"},"data":[0,0,0,0,0,0,0,0,0,0,0,0,0,0,0,0,0,0,0,0,0,0,0,0,0,0,0,0,0,0,0,0,0,0,0,0,0,0,0,0,0,0,0,0,0,0,0,0,0,0,0,0,0,0,0,0,0,0,-4.992,-4.9921,0,-5.005,-5.0052,-5.0053,-5.0023,-5.0021,-5.0018,-5.0016,-5.0145,-5.0151,-5.0156,0,0,0,0,0,0,0,0,0,0,0,0,0,-4.9641,-4.9646,-4.992,-4.9921,-4.9923,-5.005,-5.0052,-5.0054,-5.0024,-5.0021,-5.0018,-5.0015,-5.0143,-5.015,-5.0157,0,0,0,0,0,0,0,0,0,0,0,0,0,-4.9766,-4.9648,-4.9919,-4.9923,-4.9925,-5.005,-5.0052,-5.0054,-5.0024,-5.0021,-5.0017,-5.0013,-5.0141,-5.0149,-5.0158,-5.0285,0,0,-5.0184,-5.0188,0,0,0,0,0,0,0,0,-4.9759,-4.9776,-4.9921,-4.9923,-4.9925,-5.0017,-5.0001,-5.0132,-5.0025,-4.9986,-5.0016,-5.0012,-5.0105,-5.0116,-5.0149,-5.0291,-5.0297,-5.0185,-5.019,-5.0194,-5.0196,0,0,0,0,0,0,0,-4.975,-4.977,-4.9971,-4.9923,-4.9926,-4.9918,-4.9931,-5.0026,-5.0065,-4.999,-4.9988,-5.0004,-5.0105,-5.0141,-5.0152,-5.0299,-5.0185,-5.0192,-5.0198,-5.0201,-5.0554,-5.0558,0,0,0,0,0,0,-4.974,-4.9763,-4.9967,-4.9975,-4.9831,-4.9926,-4.9941,-4.9991,-5.0064,-5.0071,-5.0007,-5.0002,-5.0128,-5.0142,-5.0156,-5.0311,-5.0194,-5.0202,-5.0207,-5.055,-5.0555,-5.0559,0,0,0,0,0,0,-4.9734,-4.9759,-4.9962,-4.9869,-4.9894,-4.9934,-4.9991,-4.9996,-5.0031,-5.0077,-5.0083,-5.0036,-5.0125,-5.0144,-5.0254,-5.0315,-5.0206,-5.0214,-5.0545,-5.0551,-5.0557,-5.0622,0,0,0,0,0,0,-4.9726,-4.9757,-4.9806,-4.987,-4.9899,-5.0059,-4.9995,-5.0001,-5.0046,-5.0041,-5.0106,-5.0113,-5.0124,-5.0241,-5.0263,-5.0325,-5.022,-5.0539,-5.0548,-5.0555,-5.0615,-5.063,-5.0643,0,0,0,0,0,-4.9717,-4.9818,-4.9809,-4.9834,-4.9962,-5.0062,-5.0079,-5.0091,-5.0051,-5.0101,-5.0131,-5.0111,-5.0305,-5.0253,-5.0277,-5.0343,-5.0535,-5.0545,-5.0554,-5.0608,-5.0627,-5.0643,0,0,0,0,0,0,-4.9758,-4.9826,-4.9817,-4.9943,-4.9997,-5.0057,-5.012,-5.011,-5.0175,-5.0168,-5.0178,-5.0193,-5.0306,-5.0335,-5.0275,-5.0471,-5.0415,-5.0429,-5.0448,-5.0466,-5.0479,-5.047,-5.0227,0,0,0,0,0,-4.9782,-4.9859,-4.9914,-5.0019,-5.0048,-5.008,-5.0123,-5.0128,-5.0185,-5.0207,-5.0245,-5.0299,-5.0372,-5.042,-5.049,-5.0619,-5.0633,-5.0676,-5.069,-5.0701,-5.0714,-5.0785,-5.0805,-5.059,-5.059,-5.059,0,0,-4.9832,-4.9879,-4.9927,-5.0029,-5.0072,-5.0151,-5.0099,-5.0184,-5.0242,-5.0219,-5.0327,-5.0356,-5.0417,-5.0538,-5.0592,-5.0566,-5.0776,-5.0713,-5.0722,-5.0729,-5.0797,-5.0817,-5.0835,-5.0597,-5.0595,-5.0594,0,0,-4.9964,-5.0007,-5.01,-5.0145,-5.0211,-5.0232,-5.0255,-5.0317,-5.0336,-5.0444,-5.0429,-5.0498,-5.0624,-5.0669,-5.0708,-5.0859,-5.0843,-5.0881,-5.0955,-5.1024,-5.1041,-5.1056,-5.1111,-5.113,-5.0893,-5.0893,-5.0894,0,-5.0017,-5.0136,-5.0149,-5.0237,-5.0282,-5.0267,-5.0362,-5.0404,-5.0489,-5.052,-5.0489,-5.0649,-5.0689,-5.082,-5.0857,-5.0889,-5.0915,-5.0874,-5.1038,-5.1053,-5.1067,-5.1119,-5.114,-5.0898,-5.0897,-5.0897,-5.0896,0,-5.0199,-5.0282,-5.0349,-5.0435,-5.0488,-5.0578,-5.0604,-5.0656,-5.0656,-5.068,-5.0791,-5.0838,-5.0919,-5.095,-5.095,-5.1082,-5.1063,-5.1035,-5.0979,-5.1092,-5.1141,-5.1161,-5.0904,-5.0902,-5.0901,-5.09,0,0,-5.0359,-5.0452,-5.0477,-5.0516,-5.0589,-5.0653,-5.0742,-5.0823,-5.0868,-5.0927,-5.1003,-5.111,-5.1086,-5.113,-5.1135,-5.1196,-5.1314,-5.1161,-5.1162,-5.1188,-5.1463,-5.1484,-5.1507,-5.1304,-5.1308,-5.1311,-5.1458,0,-5.0498,-5.0659,-5.0673,-5.0816,-5.0894,-5.0881,-5.0959,-5.1012,-5.1037,-5.1105,-5.1132,-5.1209,-5.117,-5.1197,-5.1257,-5.1287,-5.1369,-5.1276,-5.1374,-5.1377,-5.136,-5.1532,-5.1555,-5.1692,-5.1477,-5.148,-5.1483,0,-5.0681,-5.0749,-5.0901,-5.0965,-5.0997,-5.1068,-5.1143,-5.1209,-5.1269,-5.1282,-5.1334,-5.1331,-5.1423,-5.1364,-5.149,-5.1427,-5.1467,-5.1489,-5.1494,-5.1504,-5.1437,-5.1548,-5.1735,-5.1756,-5.1513,-5.151,-5.1508,0,-5.0785,-5.0913,-5.1021,-5.1055,-5.1131,-5.1181,-5.1215,-5.1272,-5.132,-5.1385,-5.1416,-5.1491,-5.1532,-5.1589,-5.1607,-5.1562,-5.1733,-5.1675,-5.1747,-5.1747,-5.1784,-5.1781,-5.1981,-5.1809,-5.1809,-5.1808,-5.1808,0,-5.0938,-5.1032,-5.1069,-5.1135,-5.1239,-5.1255,-5.1358,-5.1389,-5.1439,-5.1511,-5.1504,-5.1571,-5.159,-5.166,-5.1674,-5.1778,-5.1796,-5.1809,-5.1812,-5.1811,-5.1809,-5.1837,-5.1829,-5.1814,-5.1813,-5.1812,-5.1811,0,-5.1071,-5.1099,-5.1216,-5.1281,-5.1299,-5.1373,-5.1427,-5.1491,-5.1515,-5.1606,-5.1628,-5.1666,-5.1749,-5.1773,-5.1871,-5.188,-5.2002,-5.1996,-5.1983,-5.1983,-5.2054,-5.2047,-5.228,-5.2312,-5.2118,-5.212,-5.2121,0,-5.1167,-5.124,-5.1312,-5.1361,-5.1398,-5.1475,-5.1525,-5.1543,-5.1595,-5.167,-5.1724,-5.1806,-5.1873,-5.2006,-5.2041,-5.2117,-5.2112,-5.2189,-5.2124,-5.212,-5.2115,-5.2111,-5.2118,-5.2201,-5.2203,-5.2205,-5.2206,0,-5.1336,-5.1347,-5.142,-5.1498,-5.1558,-5.162,-5.168,-5.1719,-5.1746,-5.1804,-5.189,-5.1942,-5.2044,-5.2126,-5.2203,-5.2236,-5.2226,-5.2227,-5.2247,-5.2247,-5.2237,-5.2244,-5.2017,-5.2221,-5.222,-5.2218,-5.2218,-5.2217,-5.1454,-5.1519,-5.1581,-5.1662,-5.1709,-5.1765,-5.1829,-5.1863,-5.1935,-5.2021,-5.2027,-5.212,-5.2178,-5.2281,-5.2319,-5.2391,-5.2369,-5.2399,-5.2406,-5.2414,-5.242,-5.2225,-5.2405,-5.2405,-5.2404,-5.2404,-5.2404,0,-5.1623,-5.1663,-5.1738,-5.1823,-5.1887,-5.1874,-5.1939,-5.1994,-5.2076,-5.2133,-5.2199,-5.2298,-5.2378,-5.2421,-5.25,-5.255,-5.2547,-5.257,-5.2566,-5.2575,-5.2435,-5.241,-5.2571,-5.2571,-5.2571,-5.2571,-5.2571,-5.2571,-5.1719,-5.1828,-5.1846,-5.1978,-5.2016,-5.2109,-5.2148,-5.22,-5.2245,-5.2357,-5.2424,-5.2452,-5.2503,-5.2586,-5.2658,-5.2669,-5.2698,-5.2724,-5.2732,-5.2601,-5.2584,-5.2568,-5.2544,-5.2731,-5.2731,-5.2865,-5.2867,-5.2868]}]]